When you browse on this site, cookies collect data to enhance your experience and personalize the content and advertising you see.
Visit our Privacy Policy to learn more. By continuing to use the site, you agree to this use of cookies and data.
  • In Austria
  • List of Countries
  • For 7 days
  • Water Temperature
  • Satellite Maps
  • Weather Map
  • News
  • Weather Widgets
  • user-avatar
    Login

    Hourly Weather Trostyanec

    Today, 21 July, Sunday

    Time Temperature Precipitation Wind Pressure Humidity
    00:00 +18°C° 0 mm 0 mps 753 mmHg 78%
    01:00 +18°C° 0 mm 0 mps 753 mmHg 78%
    02:00 +18°C° 0 mm 0 mps 753 mmHg 76%
    03:00 +18°C° 0 mm 0 mps 753 mmHg 76%
    04:00 +19°C° 0 mm 0 mps 753 mmHg 76%
    05:00 +19°C° 0 mm 0 mps 753 mmHg 76%
    06:00 +19°C° 0 mm 0 mps 753 mmHg 75%
    07:00 +20°C° 0 mm 0 mps 753 mmHg 74%
    08:00 +21°C° 0 mm 0 mps 753 mmHg 69%
    09:00 +22°C° 0 mm 0 mps 753 mmHg 65%
    10:00 +23°C° 0 mm 0 mps 753 mmHg 61%
    11:00 +26°C° 0 mm 1 mps 753 mmHg 57%
    12:00 +27°C° 0.1 mm 1 mps 753 mmHg 53%
    13:00 +28°C° 0.1 mm 1 mps 753 mmHg 50%
    14:00 +28°C° 0.1 mm 1 mps 752 mmHg 47%
    15:00 +28°C° 0 mm 1 mps 752 mmHg 50%
    16:00 +28°C° 0 mm 1 mps 753 mmHg 53%
    17:00 +28°C° 0 mm 1 mps 753 mmHg 55%
    18:00 +26°C° 0 mm 1 mps 752 mmHg 58%
    19:00 +24°C° 0 mm 1 mps 752 mmHg 61%
    20:00 +23°C° 0 mm 1 mps 752 mmHg 64%
    21:00 +22°C° 0 mm 1 mps 752 mmHg 67%
    22:00 +21°C° 0 mm 1 mps 753 mmHg 70%
    23:00 +20°C° 0 mm 1 mps 753 mmHg 72%

    Tomorrow, 22 July, Monday

    Time Temperature Precipitation Wind Pressure Humidity
    00:00 +18°C° 0 mm 0 mps 753 mmHg 74%
    01:00 +17°C° 0 mm 0 mps 753 mmHg 76%
    02:00 +17°C° 0 mm 0 mps 753 mmHg 78%
    03:00 +17°C° 0 mm 0 mps 753 mmHg 78%
    04:00 +17°C° 0 mm 0 mps 752 mmHg 78%
    05:00 +19°C° 0 mm 1 mps 752 mmHg 79%
    06:00 +21°C° 0 mm 1 mps 752 mmHg 74%
    07:00 +23°C° 0 mm 1 mps 752 mmHg 69%
    08:00 +25°C° 0 mm 1 mps 752 mmHg 64%
    09:00 +26°C° 0 mm 2 mps 752 mmHg 60%
    10:00 +27°C° 0 mm 2 mps 752 mmHg 57%
    11:00 +28°C° 0 mm 2 mps 752 mmHg 53%
    12:00 +29°C° 0 mm 2 mps 752 mmHg 51%
    13:00 +29°C° 0 mm 3 mps 751 mmHg 50%
    14:00 +30°C° 0 mm 3 mps 751 mmHg 49%
    15:00 +29°C° 0 mm 2 mps 751 mmHg 54%
    16:00 +28°C° 0 mm 2 mps 750 mmHg 58%
    17:00 +28°C° 0 mm 2 mps 750 mmHg 63%
    18:00 +26°C° 0.7 mm 2 mps 750 mmHg 70%
    19:00 +24°C° 0.7 mm 2 mps 750 mmHg 78%
    20:00 +21°C° 0.7 mm 3 mps 749 mmHg 85%
    21:00 +21°C° 0.7 mm 2 mps 749 mmHg 86%
    22:00 +21°C° 0.7 mm 1 mps 749 mmHg 87%
    23:00 +21°C° 0.7 mm 1 mps 749 mmHg 88%

    Day after tomorrow, 23 July, Tuesday

    Time Temperature Precipitation Wind Pressure Humidity
    00:00 +20°C° 0.2 mm 1 mps 749 mmHg 89%
    01:00 +20°C° 0.2 mm 1 mps 749 mmHg 90%
    02:00 +19°C° 0.2 mm 1 mps 748 mmHg 91%
    03:00 +19°C° 0 mm 1 mps 748 mmHg 92%
    04:00 +19°C° 0 mm 1 mps 748 mmHg 93%
    05:00 +19°C° 0 mm 1 mps 748 mmHg 93%
    06:00 +19°C° 0 mm 2 mps 748 mmHg 90%
    07:00 +20°C° 0 mm 2 mps 748 mmHg 87%
    08:00 +21°C° 0 mm 3 mps 748 mmHg 84%
    09:00 +22°C° 0 mm 3 mps 748 mmHg 78%
    10:00 +24°C° 0 mm 3 mps 748 mmHg 73%
    11:00 +25°C° 0 mm 3 mps 748 mmHg 68%
    12:00 +25°C° 0 mm 3 mps 748 mmHg 68%
    13:00 +25°C° 0 mm 3 mps 748 mmHg 68%
    14:00 +25°C° 0 mm 3 mps 747 mmHg 68%
    15:00 +25°C° 0.3 mm 3 mps 748 mmHg 70%
    16:00 +25°C° 0.3 mm 3 mps 748 mmHg 71%
    17:00 +24°C° 0.3 mm 2 mps 748 mmHg 73%
    18:00 +23°C° 1.7 mm 2 mps 748 mmHg 78%
    19:00 +21°C° 1.7 mm 3 mps 748 mmHg 82%
    20:00 +20°C° 1.7 mm 3 mps 748 mmHg 87%
    21:00 +19°C° 0.8 mm 2 mps 748 mmHg 89%
    22:00 +19°C° 0.8 mm 2 mps 748 mmHg 90%
    23:00 +19°C° 0.8 mm 2 mps 748 mmHg 92%

    24 July, Wednesday

    Time Temperature Precipitation Wind Pressure Humidity
    00:00 +18°C° 0.3 mm 2 mps 747 mmHg 93%
    01:00 +18°C° 0.3 mm 2 mps 747 mmHg 94%
    02:00 +18°C° 0.3 mm 2 mps 747 mmHg 94%
    03:00 +18°C° 0.3 mm 2 mps 747 mmHg 95%
    04:00 +18°C° 0.3 mm 2 mps 747 mmHg 95%
    05:00 +18°C° 0.3 mm 2 mps 747 mmHg 95%
    06:00 +18°C° 0.4 mm 2 mps 747 mmHg 94%
    07:00 +19°C° 0.4 mm 2 mps 747 mmHg 93%
    08:00 +19°C° 0.4 mm 2 mps 747 mmHg 92%
    09:00 +19°C° 0.5 mm 2 mps 747 mmHg 91%
    10:00 +19°C° 0.5 mm 2 mps 747 mmHg 91%
    11:00 +20°C° 0.5 mm 1 mps 747 mmHg 90%
    12:00 +20°C° 0.1 mm 2 mps 747 mmHg 90%
    13:00 +20°C° 0.1 mm 2 mps 747 mmHg 89%
    14:00 +20°C° 0.1 mm 2 mps 747 mmHg 88%
    15:00 +21°C° 0.1 mm 3 mps 747 mmHg 85%
    16:00 +21°C° 0.1 mm 4 mps 747 mmHg 82%
    17:00 +22°C° 0.1 mm 4 mps 747 mmHg 79%
    18:00 +21°C° 0 mm 4 mps 747 mmHg 83%
    19:00 +20°C° 0 mm 4 mps 747 mmHg 86%
    20:00 +19°C° 0 mm 4 mps 747 mmHg 89%
    21:00 +19°C° 0.8 mm 4 mps 747 mmHg 91%
    22:00 +18°C° 0.8 mm 4 mps 748 mmHg 93%
    23:00 +18°C° 0.8 mm 3 mps 748 mmHg 95%

    25 July, Thursday

    Time Temperature Precipitation Wind Pressure Humidity
    00:00 +18°C° 1.5 mm 4 mps 748 mmHg 95%
    01:00 +18°C° 1.5 mm 4 mps 747 mmHg 95%
    02:00 +18°C° 1.5 mm 4 mps 747 mmHg 95%
    03:00 +17°C° 0.7 mm 5 mps 747 mmHg 95%
    04:00 +17°C° 0.7 mm 5 mps 747 mmHg 95%
    05:00 +17°C° 0.7 mm 5 mps 747 mmHg 95%
    06:00 +17°C° 0.9 mm 5 mps 747 mmHg 95%
    07:00 +17°C° 0.9 mm 5 mps 748 mmHg 95%
    08:00 +19°C° 0.9 mm 5 mps 748 mmHg 94%
    09:00 +19°C° 0.5 mm 6 mps 748 mmHg 94%
    10:00 +19°C° 0.5 mm 6 mps 748 mmHg 93%
    11:00 +19°C° 0.5 mm 6 mps 748 mmHg 93%
    12:00 +19°C° 0.4 mm 6 mps 748 mmHg 93%
    13:00 +19°C° 0.4 mm 6 mps 748 mmHg 93%
    14:00 +17°C° 0.4 mm 6 mps 748 mmHg 93%
    15:00 +17°C° 0.2 mm 6 mps 748 mmHg 93%
    16:00 +17°C° 0.2 mm 6 mps 748 mmHg 93%
    17:00 +17°C° 0.2 mm 5 mps 748 mmHg 93%
    18:00 +17°C° 0.2 mm 5 mps 748 mmHg 94%
    19:00 +17°C° 0.2 mm 5 mps 748 mmHg 94%
    20:00 +17°C° 0.2 mm 5 mps 748 mmHg 94%
    21:00 +17°C° 0 mm 5 mps 748 mmHg 95%
    22:00 +17°C° 0 mm 5 mps 748 mmHg 95%
    23:00 +18°C° 0 mm 4 mps 748 mmHg 95%

    26 July, Friday

    Time Temperature Precipitation Wind Pressure Humidity
    00:00 +18°C° 0.1 mm 4 mps 748 mmHg 96%
    01:00 +18°C° 0.1 mm 4 mps 748 mmHg 96%
    02:00 +19°C° 0.1 mm 4 mps 748 mmHg 96%
    03:00 +18°C° 0.3 mm 4 mps 748 mmHg 96%
    04:00 +18°C° 0.3 mm 4 mps 748 mmHg 96%
    05:00 +18°C° 0.3 mm 4 mps 748 mmHg 96%
    06:00 +18°C° 1 mm 4 mps 749 mmHg 96%
    07:00 +18°C° 1 mm 4 mps 749 mmHg 95%
    08:00 +18°C° 1 mm 4 mps 749 mmHg 95%
    09:00 +18°C° 0.1 mm 4 mps 749 mmHg 94%
    10:00 +18°C° 0.1 mm 4 mps 750 mmHg 93%
    11:00 +19°C° 0.1 mm 4 mps 750 mmHg 92%
    12:00 +19°C° 0.1 mm 4 mps 750 mmHg 92%
    13:00 +19°C° 0.1 mm 3 mps 750 mmHg 91%
    14:00 +19°C° 0.1 mm 3 mps 750 mmHg 90%
    15:00 +20°C° 0 mm 3 mps 749 mmHg 90%
    16:00 +20°C° 0 mm 3 mps 749 mmHg 90%
    17:00 +20°C° 0 mm 3 mps 749 mmHg 90%
    18:00 +20°C° 0 mm 3 mps 749 mmHg 90%
    19:00 +20°C° 0 mm 3 mps 749 mmHg 90%
    20:00 +19°C° 0 mm 2 mps 749 mmHg 90%
    21:00 +19°C° 0 mm 3 mps 749 mmHg 91%
    22:00 +18°C° 0 mm 3 mps 749 mmHg 92%
    23:00 +18°C° 0 mm 3 mps 749 mmHg 93%
    Show more